This is the latest recevied weather packets stored in our database for station/object KK4WXG. If no packets are shown the sender has not sent any weather packets the latest 10 day(s).
| Time | Temp. | Humidity | Pressure | Rain* | Wind** | Luminosity | Snow |
|---|---|---|---|---|---|---|---|
| 1778163891 | 14.44° C | 44% | 1012.6 hPa | 0 mm | - | 266 W/m² | - |
| 1778163589 | 13.89° C | 44% | 1012.6 hPa | 0 mm | - | 318 W/m² | - |
| 1778163285 | 13.89° C | 50% | 1012.8 hPa | 0 mm | - | 292 W/m² | - |
| 1778162982 | 13.33° C | 45% | 1012.7 hPa | 0 mm | - | 265 W/m² | - |
| 1778162678 | 13.33° C | 48% | 1012.7 hPa | 0 mm | - | 329 W/m² | - |
| 1778162376 | 13.33° C | 45% | 1012.8 hPa | 0 mm | - | 279 W/m² | - |
| 1778162072 | 13.33° C | 48% | 1012.8 hPa | 0 mm | - | 207 W/m² | - |
| 1778161770 | 13.33° C | 47% | 1013 hPa | 0 mm | - | 273 W/m² | - |
| 1778161466 | 13.33° C | 52% | 1012.8 hPa | 0 mm | - | 292 W/m² | - |
| 1778161162 | 13.33° C | 48% | 1013 hPa | 0 mm | - | 308 W/m² | - |
| 1778160859 | 13.33° C | 53% | 1013 hPa | 0 mm | - | 300 W/m² | - |
| 1778160557 | 12.78° C | 47% | 1013.1 hPa | 0 mm | - | 306 W/m² | - |
| 1778160253 | 12.78° C | 51% | 1013.4 hPa | 0 mm | - | 228 W/m² | - |
| 1778159950 | 12.78° C | 51% | 1013.1 hPa | 0 mm | - | 204 W/m² | - |
| 1778159647 | 12.78° C | 52% | 1013.2 hPa | 0 mm | - | 190 W/m² | - |
| 1778159344 | 12.78° C | 55% | 1013.1 hPa | 0 mm | - | 196 W/m² | - |
| 1778159040 | 12.22° C | 53% | 1013.1 hPa | 0 mm | - | 160 W/m² | - |
| 1778158739 | 12.22° C | 52% | 1013.1 hPa | 0 mm | - | 152 W/m² | - |
| 1778158436 | 12.22° C | 52% | 1013 hPa | 0 mm | - | 160 W/m² | - |
| 1778158134 | 12.78° C | 54% | 1013.4 hPa | 0 mm | - | 169 W/m² | - |
| 1778157830 | 12.78° C | 53% | 1013.3 hPa | 0 mm | - | 201 W/m² | - |
| 1778157529 | 12.78° C | 52% | 1013.1 hPa | 0 mm | - | 209 W/m² | - |
| 1778157225 | 12.78° C | 54% | 1013.1 hPa | 0 mm | - | 199 W/m² | - |
| 1778156922 | 12.22° C | 55% | 1013.1 hPa | 0 mm | - | 191 W/m² | - |
| 1778156617 | 12.22° C | 57% | 1013.1 hPa | 0 mm | - | 139 W/m² | - |
* Rain latest hour (hover to see other rain measurements)
** Current wind speed in m/s (hover to see current wind gust speed)